GW1975 Weather Reports


Display with metric or nautical units.
time (UTC)temp
F
wind
direction
speed
MPH
gust
MPH
rain 1hr
in
rain 24hr
in
rain mn
in
humidity
%
barometer
mb
20260504234236 79 253 4.0 4.0 0.00 0.00 0.00 44 1004.0
20260504233735 79 234 2.0 3.0 0.00 0.00 0.00 44 1003.0
20260504233235 80 283 1.0 3.0 0.00 0.00 0.00 44 1003.0
20260504232735 80 249 3.0 4.0 0.00 0.00 0.00 44 1004.0
20260504232235 80 235 2.0 3.0 0.00 0.00 0.00 44 1004.0
20260504231735 80 280 2.0 4.0 0.00 0.00 0.00 44 1004.0
20260504231235 80 251 2.0 2.0 0.00 0.00 0.00 45 1004.0
20260504230735 80 257 2.0 3.0 0.00 0.00 0.00 45 1004.0
20260504230235 80 245 2.0 5.0 0.00 0.00 0.00 45 1004.0
20260504225735 79 263 2.0 6.0 0.00 0.00 0.00 49 1004.0
20260504225235 77 211 2.0 3.0 0.00 0.00 0.00 52 1004.0
20260504224735 77 189 0.0 2.0 0.00 0.00 0.00 54 1004.0
20260504224235 76 230 1.0 2.0 0.00 0.00 0.00 55 1004.0
20260504223736 76 229 0.0 1.0 0.00 0.00 0.00 56 1004.0
20260504223236 77 222 1.0 2.0 0.00 0.00 0.00 55 1004.0
20260504222736 77 89 0.0 2.0 0.00 0.00 0.00 54 1004.0
20260504222236 77 228 0.0 1.0 0.00 0.00 0.00 53 1004.0
20260504221735 77 235 1.0 2.0 0.00 0.00 0.00 53 1004.0
20260504221235 77 246 0.0 2.0 0.00 0.00 0.00 53 1005.0
20260504220736 77 138 1.0 2.0 0.00 0.00 0.00 52 1005.0
20260504220235 77 200 0.0 2.0 0.00 0.00 0.00 51 1005.0
20260504215736 77 219 2.0 2.0 0.00 0.00 0.00 51 1005.0
20260504215235 78 230 0.0 2.0 0.00 0.00 0.00 52 1004.0
20260504214736 77 202 1.0 2.0 0.00 0.00 0.00 54 1004.0
20260504214236 77 229 1.0 3.0 0.00 0.00 0.00 53 1005.0
20260504213735 77 224 0.0 3.0 0.00 0.00 0.00 54 1005.0
20260504213236 77 206 2.0 3.0 0.00 0.00 0.00 54 1005.0
20260504212735 75 219 1.0 2.0 0.00 0.00 0.00 57 1005.0
20260504212235 74 217 2.0 2.0 0.00 0.00 0.00 59 1005.0
20260504211735 73 212 0.0 3.0 0.00 0.00 0.00 59 1005.0
20260504211235 73 200 1.0 3.0 0.00 0.00 0.00 60 1004.0
20260504210735 75 207 1.0 3.0 0.00 0.00 0.00 59 1005.0
20260504210236 76 218 0.0 3.0 0.00 0.00 0.00 59 1005.0
20260504205735 74 99 2.0 4.0 0.00 0.00 0.00 62 1005.0
20260504205235 72 180 0.0 2.0 0.00 0.00 0.00 65 1005.0
20260504204736 73 122 1.0 3.0 0.00 0.00 0.00 65 1005.0
20260504204237 72 64 3.0 4.0 0.00 0.00 0.00 67 1005.0
20260504203735 72 224 0.0 2.0 0.00 0.00 0.00 67 1005.0
20260504203235 71 168 1.0 2.0 0.00 0.00 0.00 69 1005.0
20260504202735 71 109 2.0 4.0 0.00 0.00 0.00 69 1005.0
20260504202235 70 158 0.0 1.0 0.00 0.00 0.00 73 1005.0
20260504201736 70 203 0.0 2.0 0.00 0.00 0.00 74 1005.0
20260504201235 68 165 0.0 6.0 0.00 0.00 0.00 76 1005.0
20260504200735 66 138 0.0 2.0 0.00 0.00 0.00 83 1005.0
20260504200235 67 211 0.0 2.0 0.00 0.00 0.00 86 1005.0
20260504195736 66 229 0.0 2.0 0.00 0.00 0.00 86 1005.0
20260504195235 65 104 3.0 3.0 0.00 0.00 0.00 88 1005.0
20260504194735 65 128 0.0 2.0 0.00 0.00 0.00 89 1005.0
20260504194235 65 224 0.0 1.0 0.00 0.00 0.00 90 1006.0
20260504193736 64 227 0.0 1.0 0.00 0.00 0.00 91 1006.0
20260504193236 63 175 1.0 1.0 0.00 0.00 0.00 92 1006.0
20260504192735 62 142 0.0 0.0 0.00 0.00 0.00 92 1006.0
20260504192236 62 307 1.0 2.0 0.00 0.00 0.00 91 1006.0
20260504191735 62 177 0.0 2.0 0.00 0.00 0.00 90 1005.0
20260504191235 62 117 0.0 3.0 0.00 0.00 0.00 91 1006.0
20260504190736 61 148 0.0 1.0 0.00 0.00 0.00 91 1007.0
20260504190236 61 110 0.0 2.0 0.00 0.00 0.00 91 1007.0
20260504185735 61 56 0.0 2.0 0.00 0.00 0.00 90 1007.0
20260504185235 61 269 0.0 2.0 0.00 0.00 0.00 89 1007.0
20260504184737 61 230 0.0 1.0 0.00 0.00 0.00 89 1007.0
20260504184236 62 345 2.0 2.0 0.00 0.00 0.00 87 1007.0
20260504183736 62 129 2.0 4.0 0.00 0.00 0.00 84 1006.0
20260504182803 64 147 2.0 4.0 0.00 0.00 0.00 77 1007.0
20260504182236 66 103 2.0 3.0 0.00 0.00 0.00 69 1008.0
20260504181736 66 2 2.0 4.0 0.00 0.00 0.00 65 1007.0
20260504181236 66 91 1.0 3.0 0.00 0.00 0.00 66 1008.0
20260504180736 66 75 0.0 3.0 0.00 0.00 0.00 66 1007.0
20260504180235 66 89 0.0 1.0 0.00 0.00 0.00 69 1007.0
20260504175735 65 101 1.0 2.0 0.00 0.00 0.00 69 1007.0
20260504175236 64 89 0.0 2.0 0.00 0.00 0.00 71 1007.0
20260504174736 64 219 0.0 1.0 0.00 0.00 0.00 71 1007.0
20260504174236 64 174 0.0 2.0 0.00 0.00 0.00 73 1007.0
20260504173313 64 212 0.0 2.0 0.00 0.00 0.00 76 1007.0
20260504172736 64 105 0.0 2.0 0.00 0.00 0.00 75 1007.0
20260504172237 64 297 0.0 2.0 0.00 0.00 0.00 73 1007.0
20260504171736 64 284 0.0 1.0 0.00 0.00 0.00 71 1007.0
20260504171235 65 276 0.0 2.0 0.00 0.00 0.00 71 1007.0
20260504170735 66 264 0.0 1.0 0.00 0.00 0.00 67 1007.0
20260504170237 66 182 1.0 3.0 0.00 0.00 0.00 65 1007.0
20260504160236 67 230 0.0 0.0 0.00 0.00 0.00 58 1009.0
20260504150736 70 227 0.0 1.0 0.00 0.00 0.00 54 1009.0
20260504150235 71 234 1.0 2.0 0.00 0.00 0.00 53 1009.0
20260504141235 71 275 0.0 2.0 0.00 0.00 0.00 51 1009.0
20260504140740 70 163 0.0 3.0 0.00 0.00 0.00 51 1009.0
20260504140240 69 260 1.0 2.0 0.00 0.00 0.00 54 1009.0
20260504130736 63 118 2.0 4.0 0.00 0.00 0.00 66 1010.0
20260504130235 63 188 2.0 2.0 0.00 0.00 0.00 67 1010.0
20260504120235 58 160 1.0 3.0 0.00 0.00 0.00 75 1010.0
20260504110236 58 139 1.0 3.0 0.00 0.00 0.00 74 1010.0
20260504100235 58 242 0.0 2.0 0.00 0.00 0.00 73 1009.0
20260504081735 60 110 1.0 2.0 0.00 0.00 0.00 67 1009.0
20260504081235 60 281 2.0 2.0 0.00 0.00 0.00 65 1009.0
20260504080735 60 100 2.0 3.0 0.00 0.00 0.00 65 1009.0
20260504080236 61 101 2.0 3.0 0.00 0.00 0.00 64 1009.0
20260504070236 64 93 2.0 3.0 0.00 0.00 0.00 55 1009.0
20260504060237 66 224 0.0 1.0 0.00 0.00 0.00 52 1009.0
20260504050735 67 264 4.0 4.0 0.00 0.00 0.00 50 1009.0
20260504050235 67 246 0.0 4.0 0.00 0.00 0.00 50 1009.0
20260504045735 67 208 1.0 3.0 0.00 0.00 0.00 50 1009.0
20260504045235 67 283 0.0 5.0 0.00 0.00 0.00 49 1009.0
20260504044735 67 280 5.0 5.0 0.00 0.00 0.00 50 1010.0
20260504044235 67 236 2.0 2.0 0.00 0.00 0.00 49 1010.0
20260504043735 68 263 1.0 4.0 0.00 0.00 0.00 48 1010.0
20260504043235 68 218 0.0 6.0 0.00 0.00 0.00 48 1010.0
20260504042735 68 249 2.0 3.0 0.00 0.00 0.00 48 1010.0
20260504042235 68 261 3.0 3.0 0.00 0.00 0.00 48 1010.0
20260504041735 68 258 0.0 2.0 0.00 0.00 0.00 48 1010.0
20260504041235 68 242 1.0 5.0 0.00 0.00 0.00 47 1010.0
20260504040736 68 230 0.0 2.0 0.00 0.00 0.00 47 1010.0
20260504040236 69 310 1.0 2.0 0.00 0.00 0.00 46 1010.0
20260504035735 69 212 0.0 3.0 0.00 0.00 0.00 46 1010.0
20260504035235 69 221 0.0 4.0 0.00 0.00 0.00 45 1011.0
20260504034735 69 241 2.0 4.0 0.00 0.00 0.00 45 1011.0
20260504034235 69 254 2.0 4.0 0.00 0.00 0.00 45 1011.0
20260504033735 69 234 3.0 5.0 0.00 0.00 0.00 45 1011.0
20260504033235 69 227 1.0 3.0 0.00 0.00 0.00 45 1011.0
20260504032736 69 245 2.0 5.0 0.00 0.00 0.00 45 1011.0
20260504032235 69 254 1.0 3.0 0.00 0.00 0.00 45 1011.0
20260504031736 69 266 1.0 3.0 0.00 0.00 0.00 45 1011.0
20260504031236 69 257 2.0 3.0 0.00 0.00 0.00 45 1011.0
20260504030253 69 217 2.0 3.0 0.00 0.00 0.00 45 1010.0
20260504025735 69 205 0.0 2.0 0.00 0.00 0.00 45 1010.0
20260504025235 69 223 1.0 3.0 0.00 0.00 0.00 45 1010.0
20260504024735 69 246 1.0 2.0 0.00 0.00 0.00 44 1011.0
20260504024236 69 271 2.0 2.0 0.00 0.00 0.00 45 1011.0
20260504023735 69 239 0.0 2.0 0.00 0.00 0.00 44 1010.0
20260504023235 69 209 0.0 2.0 0.00 0.00 0.00 44 1011.0
20260504022735 69 227 0.0 1.0 0.00 0.00 0.00 44 1010.0
20260504022235 69 260 1.0 2.0 0.00 0.00 0.00 44 1010.0
20260504021735 69 228 0.0 3.0 0.00 0.00 0.00 44 1011.0
20260504021235 69 238 1.0 2.0 0.00 0.00 0.00 45 1011.0
20260504020735 69 232 0.0 1.0 0.00 0.00 0.00 44 1010.0
20260504020235 69 297 0.0 1.0 0.00 0.00 0.00 44 1010.0
20260504015735 69 218 0.0 0.0 0.00 0.00 0.00 43 1010.0
20260504015235 70 221 0.0 1.0 0.00 0.00 0.00 43 1010.0
20260504014736 70 224 0.0 2.0 0.00 0.00 0.00 43 1010.0
20260504014235 70 221 0.0 1.0 0.00 0.00 0.00 42 1010.0
20260504013735 70 227 1.0 1.0 0.00 0.00 0.00 42 1010.0
20260504013236 71 224 0.0 1.0 0.00 0.00 0.00 42 1010.0
20260504012735 71 230 1.0 1.0 0.00 0.00 0.00 41 1010.0
20260504012235 71 215 0.0 1.0 0.00 0.00 0.00 41 1010.0
20260504011735 71 236 0.0 1.0 0.00 0.00 0.00 40 1010.0
20260504011236 72 234 0.0 1.0 0.00 0.00 0.00 40 1010.0
20260504010736 72 311 0.0 2.0 0.00 0.00 0.00 39 1010.0
20260504010235 73 236 1.0 1.0 0.00 0.00 0.00 38 1010.0
20260504005735 73 243 0.0 2.0 0.00 0.00 0.00 38 1010.0
20260504005235 73 224 0.0 3.0 0.00 0.00 0.00 37 1010.0
20260504004735 73 259 1.0 2.0 0.00 0.00 0.00 37 1010.0
20260504004235 74 212 0.0 3.0 0.00 0.00 0.00 37 1010.0
20260504003735 74 235 0.0 2.0 0.00 0.00 0.00 36 1010.0
20260504003236 74 242 1.0 2.0 0.00 0.00 0.00 36 1010.0
20260504002735 75 220 1.0 2.0 0.00 0.00 0.00 36 1010.0
20260504002235 75 262 1.0 3.0 0.00 0.00 0.00 35 1010.0
20260504001735 75 237 2.0 5.0 0.00 0.00 0.00 35 1010.0
20260504001235 75 236 2.0 5.0 0.00 0.00 0.00 34 1010.0
20260504000735 76 236 2.0 4.0 0.00 0.00 0.00 34 1010.0
20260504000236 76 273 3.0 6.0 0.00 0.00 0.00 34 1010.0
20260503235735 76 251 2.0 5.0 0.00 0.00 0.00 33 1010.0
20260503235235 77 228 2.0 5.0 0.00 0.00 0.00 33 1010.0
20260503234736 77 231 3.0 4.0 0.00 0.00 0.00 33 1010.0